Погода в Кудевери

Россия / Псковская область     56°46′08″N   29°24′49″E
темп.,
°C
ветер,
м/с
пор.,
м/с
влажн.,
%
обл.,
%
осадки,
мм/ч
давл.,
гПа
погр.,
м
6 марта, сб
сб600:00−8зсз23810 0.0 101844
03:00−9з23860 0.0 101965
06:00−9зсз25890 0.0 1019118
09:00−7зсз378419 0.0 1020482
12:00−4з467170 0.0 1019977
15:00−2зюз585838 0.0 10161407
18:00−3зюз5126084 0.0 10131121
21:00−3зюз8179192 0.6 10091338
7 марта, вс
вс700:00−2зюз81684100 0.6 10031141
03:00−1зюз81695100 2.8 9991189
06:00−4зсз71685100 3.6 9961252
09:00−7зсз5136083 3.9 9981175
12:00−3з8155836 0.0 9982366
15:00−4з8148968 1.6 9951346
18:00−5зсз71579100 1.8 9941733
21:00−6зсз71385100 2.3 9961261
8 марта, пн
пн800:00−9сз71377100 0.9 10001352
03:00−10сз4128798 0.9 1003825
06:00−9сз51192100 0.1 1005828
09:00−9сз5991100 0.3 1007728
12:00−9сз5884100 0.2 1009858
15:00−7ссз5881100 0.3 10111019
18:00−8ссз4887100 0.1 1013968
21:00−10ссз41091100 0.3 1016702
9 марта, вт
вт900:00−13ссз389551 0.0 1018230
03:00−15сз239725 0.0 101964
06:00−16з23957 0.0 101944
09:00−11зюз368853 0.0 1019225
12:00−7зюз51287100 0.1 1017662
15:00−4з61183100 0.4 10161064
18:00−4з61189100 0.3 10141088
21:00−4з61380100 0.3 1015914
10 марта, ср
ср1000:00−5з51193100 0.8 1016788
03:00−10всв4895100 3.1 1018363
06:00−12всв4993100 0.9 1019406
09:00−14всв4995100 1.0 1021280
12:00−11всв477655 0.0 1022428
15:00−9в367128 0.0 1022565
18:00−10всв368522 0.0 1022357
21:00−15в369413 0.0 1023129